Time,TemperatureF,DewpointF,PressureIn,WindDirection,WindDirectionDegrees,WindSpeedMPH,WindSpeedGustMPH,Humidity,HourlyPrecipIn,Conditions,Clouds,dailyrainin,SoftwareType,DateUTC
2013-01-08 00:13:00,10.8,4.6,30.15,West,259,1.3,3.1,73,0.00,,,0.00,WSDL version 420,2013-01-08 05:13:00,
2013-01-08 00:28:00,9.6,3.4,30.12,North,357,0.4,3.1,73,0.00,,,0.00,WSDL version 420,2013-01-08 05:28:00,
2013-01-08 00:43:00,9.3,3.1,30.15,NNE,13,1.5,3.6,73,0.00,,,0.00,WSDL version 420,2013-01-08 05:43:00,
2013-01-08 00:58:00,9.6,3.4,30.15,SW,231,1.0,2.5,73,0.00,,,0.00,WSDL version 420,2013-01-08 05:58:00,
2013-01-08 01:13:00,9.9,3.7,30.12,West,279,0.9,2.7,73,0.00,,,0.00,WSDL version 420,2013-01-08 06:13:00,
2013-01-08 01:29:00,10.4,4.2,30.15,South,190,3.5,5.8,73,0.00,,,0.00,WSDL version 420,2013-01-08 06:29:00,
2013-01-08 01:44:00,14.8,11.1,30.12,North,356,1.9,5.6,83,0.00,,,0.00,WSDL version 420,2013-01-08 06:44:00,
2013-01-08 01:59:00,13.8,8.5,30.15,WSW,248,2.0,4.3,76,0.00,,,0.00,WSDL version 420,2013-01-08 06:59:00,
2013-01-08 02:14:00,12.5,6.7,30.12,East,94,2.9,5.8,75,0.00,,,0.00,WSDL version 420,2013-01-08 07:14:00,
2013-01-08 02:29:00,12.0,6.3,30.12,South,184,1.4,3.8,75,0.00,,,0.00,WSDL version 420,2013-01-08 07:29:00,
2013-01-08 02:44:00,11.7,6.0,30.12,South,170,1.9,3.6,75,0.00,,,0.00,WSDL version 420,2013-01-08 07:44:00,
2013-01-08 02:59:00,12.5,6.7,30.12,NW,315,1.4,3.4,75,0.00,,,0.00,WSDL version 420,2013-01-08 07:59:00,
2013-01-08 03:14:00,14.0,9.4,30.12,NNE,17,2.9,8.1,80,0.00,,,0.00,WSDL version 420,2013-01-08 08:14:00,
2013-01-08 03:29:00,14.7,9.7,30.09,NNW,334,2.1,6.9,78,0.00,,,0.00,WSDL version 420,2013-01-08 08:29:00,
2013-01-08 03:44:00,15.7,10.0,30.09,ESE,106,1.9,5.6,75,0.00,,,0.00,WSDL version 420,2013-01-08 08:44:00,
2013-01-08 03:59:00,16.8,11.1,30.09,NNE,13,2.4,6.9,75,0.00,,,0.00,WSDL version 420,2013-01-08 08:59:00,
2013-01-08 04:14:00,15.7,9.4,30.09,WNW,286,2.7,4.3,73,0.00,,,0.00,WSDL version 420,2013-01-08 09:14:00,
2013-01-08 04:29:00,17.3,11.3,30.09,WSW,239,1.7,8.5,74,0.00,,,0.00,WSDL version 420,2013-01-08 09:29:00,
2013-01-08 04:44:00,16.6,10.4,30.09,West,259,3.4,6.3,74,0.00,,,0.00,WSDL version 420,2013-01-08 09:44:00,
2013-01-08 04:59:00,18.3,12.4,30.09,South,173,2.7,6.5,75,0.00,,,0.00,WSDL version 420,2013-01-08 09:59:00,
2013-01-08 05:13:00,19.7,13.5,30.09,West,266,1.9,7.6,74,0.00,,,0.00,WSDL version 420,2013-01-08 10:13:00,
2013-01-08 05:28:00,19.4,12.8,30.06,South,186,3.6,5.8,72,0.00,,,0.00,WSDL version 420,2013-01-08 10:28:00,
2013-01-08 05:43:00,19.1,12.3,30.09,SW,233,2.4,7.2,71,0.00,,,0.00,WSDL version 420,2013-01-08 10:43:00,
2013-01-08 05:58:00,18.5,12.1,30.09,WNW,283,2.8,4.9,73,0.00,,,0.00,WSDL version 420,2013-01-08 10:58:00,
2013-01-08 06:13:00,18.0,11.7,30.09,WSW,239,2.8,6.7,74,0.00,,,0.00,WSDL version 420,2013-01-08 11:13:00,
2013-01-08 06:29:00,19.3,13.3,30.06,WSW,244,3.3,5.8,75,0.00,,,0.00,WSDL version 420,2013-01-08 11:29:00,
2013-01-08 06:44:00,19.8,13.4,30.06,SW,214,4.0,7.8,73,0.00,,,0.00,WSDL version 420,2013-01-08 11:44:00,
2013-01-08 06:59:00,19.8,13.1,30.09,WSW,251,3.9,5.8,72,0.00,,,0.00,WSDL version 420,2013-01-08 11:59:00,
2013-01-08 07:14:00,20.2,13.7,30.06,WSW,252,2.6,6.3,73,0.00,,,0.00,WSDL version 420,2013-01-08 12:14:00,
2013-01-08 07:29:00,20.4,13.4,30.09,SW,221,4.9,7.8,72,0.00,,,0.00,WSDL version 420,2013-01-08 12:29:00,
2013-01-08 07:44:00,20.9,14.1,30.09,SW,214,4.9,8.7,72,0.00,,,0.00,WSDL version 420,2013-01-08 12:44:00,
2013-01-08 07:59:00,21.5,14.4,30.09,WSW,251,3.3,7.2,71,0.00,,,0.00,WSDL version 420,2013-01-08 12:59:00,
2013-01-08 08:14:00,22.0,14.6,30.09,West,270,2.0,3.8,69,0.00,,,0.00,WSDL version 420,2013-01-08 13:14:00,
2013-01-08 08:29:00,23.8,16.1,30.09,North,0,0.0,2.0,69,0.00,,,0.00,WSDL version 420,2013-01-08 13:29:00,
2013-01-08 08:44:00,25.2,16.3,30.09,North,-999,-999.0,-999.0,65,0.00,,,0.00,WSDL version 420,2013-01-08 13:44:00,
2013-01-08 08:59:00,27.4,17.4,30.12,North,-999,-999.0,-999.0,61,0.00,,,0.00,WSDL version 420,2013-01-08 13:59:00,
2013-01-08 09:14:00,28.5,16.9,30.09,North,-999,-999.0,-999.0,57,0.00,,,0.00,WSDL version 420,2013-01-08 14:14:00,
2013-01-08 09:29:00,29.5,16.8,30.12,North,-999,-999.0,-999.0,55,0.00,,,0.00,WSDL version 420,2013-01-08 14:29:00,
2013-01-08 09:44:00,30.1,16.6,30.12,North,-999,-999.0,-999.0,52,0.00,,,0.00,WSDL version 420,2013-01-08 14:44:00,
2013-01-08 09:59:00,29.9,16.1,30.12,North,-999,-999.0,-999.0,52,0.00,,,0.00,WSDL version 420,2013-01-08 14:59:00,
2013-01-08 10:13:00,30.2,16.6,30.12,North,-999,-999.0,-999.0,52,0.00,,,0.00,WSDL version 420,2013-01-08 15:13:00,
2013-01-08 10:28:00,31.1,17.2,30.12,North,-999,-999.0,-999.0,52,0.00,,,0.00,WSDL version 420,2013-01-08 15:28:00,
2013-01-08 10:43:00,31.6,17.7,30.09,North,-999,-999.0,-999.0,52,0.00,,,0.00,WSDL version 420,2013-01-08 15:43:00,
2013-01-08 10:58:00,32.4,16.2,30.09,North,-999,-999.0,-999.0,51,0.00,,,0.00,WSDL version 420,2013-01-08 15:58:00,
2013-01-08 11:13:00,33.6,16.2,30.09,North,-999,-999.0,-999.0,48,0.00,,,0.00,WSDL version 420,2013-01-08 16:13:00,
2013-01-08 11:29:00,34.7,16.6,30.09,North,-999,-999.0,-999.0,48,0.00,,,0.00,WSDL version 420,2013-01-08 16:29:00,
2013-01-08 11:44:00,35.3,16.0,30.09,North,-999,-999.0,-999.0,45,0.00,,,0.00,WSDL version 420,2013-01-08 16:44:00,
2013-01-08 11:59:00,36.6,16.8,30.09,North,-999,-999.0,-999.0,44,0.00,,,0.00,WSDL version 420,2013-01-08 16:59:00,
2013-01-08 12:14:00,37.6,17.1,30.06,North,-999,-999.0,-999.0,43,0.00,,,0.00,WSDL version 420,2013-01-08 17:14:00,
2013-01-08 12:29:00,38.3,17.5,30.06,North,-999,-999.0,-999.0,42,0.00,,,0.00,WSDL version 420,2013-01-08 17:29:00,
2013-01-08 12:44:00,39.8,18.6,30.09,North,-999,-999.0,-999.0,42,0.00,,,0.00,WSDL version 420,2013-01-08 17:44:00,
2013-01-08 12:59:00,39.6,17.8,30.09,SSW,203,3.1,3.1,41,0.00,,,0.00,WSDL version 420,2013-01-08 17:59:00,
2013-01-08 13:14:00,39.8,18.0,30.09,North,-999,-999.0,-999.0,41,0.00,,,0.00,WSDL version 420,2013-01-08 18:14:00,
2013-01-08 13:29:00,39.1,17.4,30.09,SSE,158,3.1,3.1,41,0.00,,,0.00,WSDL version 420,2013-01-08 18:29:00,
2013-01-08 13:44:00,39.2,17.5,30.09,North,-999,-999.0,-999.0,41,0.00,,,0.00,WSDL version 420,2013-01-08 18:44:00,
2013-01-08 13:59:00,37.6,16.4,30.09,North,-999,-999.0,-999.0,42,0.00,,,0.00,WSDL version 420,2013-01-08 18:59:00,
2013-01-08 14:14:00,36.9,16.4,30.12,North,-999,-999.0,-999.0,43,0.00,,,0.00,WSDL version 420,2013-01-08 19:14:00,
2013-01-08 14:29:00,35.6,15.9,30.12,North,-999,-999.0,-999.0,44,0.00,,,0.00,WSDL version 420,2013-01-08 19:29:00,
2013-01-08 14:44:00,34.8,15.7,30.12,North,-999,-999.0,-999.0,46,0.00,,,0.00,WSDL version 420,2013-01-08 19:44:00,
2013-01-08 14:58:00,34.1,16.0,30.15,North,-999,-999.0,-999.0,47,0.00,,,0.00,WSDL version 420,2013-01-08 19:58:00,
2013-01-08 15:13:00,33.3,16.0,30.15,North,-999,-999.0,-999.0,49,0.00,,,0.00,WSDL version 420,2013-01-08 20:13:00,
2013-01-08 15:28:00,32.7,16.2,30.15,North,-999,-999.0,-999.0,51,0.00,,,0.00,WSDL version 420,2013-01-08 20:28:00,
2013-01-08 15:43:00,32.2,16.3,30.15,North,-999,-999.0,-999.0,52,0.00,,,0.00,WSDL version 420,2013-01-08 20:43:00,
2013-01-08 15:58:00,31.0,17.6,30.15,North,-999,-999.0,-999.0,53,0.00,,,0.00,WSDL version 420,2013-01-08 20:58:00,
2013-01-08 16:13:00,30.7,17.4,30.15,North,-999,-999.0,-999.0,54,0.00,,,0.00,WSDL version 420,2013-01-08 21:13:00,
2013-01-08 16:29:00,30.5,17.8,30.18,North,-999,-999.0,-999.0,55,0.00,,,0.00,WSDL version 420,2013-01-08 21:29:00,
2013-01-08 16:44:00,30.2,18.3,30.18,North,-999,-999.0,-999.0,57,0.00,,,0.00,WSDL version 420,2013-01-08 21:44:00,
2013-01-08 16:59:00,30.1,18.6,30.18,NNW,338,4.3,4.9,58,0.00,,,0.00,WSDL version 420,2013-01-08 21:59:00,
2013-01-08 17:14:00,29.7,18.6,30.21,NNW,338,4.3,4.9,59,0.00,,,0.00,WSDL version 420,2013-01-08 22:14:00,
2013-01-08 17:29:00,29.6,19.2,30.21,North,-999,-999.0,-999.0,62,0.00,,,0.00,WSDL version 420,2013-01-08 22:29:00,
2013-01-08 17:44:00,29.7,19.7,30.21,WSW,248,6.9,8.1,62,0.00,,,0.00,WSDL version 420,2013-01-08 22:44:00,
2013-01-08 17:59:00,29.4,19.6,30.24,North,-999,-999.0,-999.0,63,0.00,,,0.00,WSDL version 420,2013-01-08 22:59:00,
2013-01-08 18:14:00,28.1,18.4,30.21,North,-999,-999.0,-999.0,63,0.00,,,0.00,WSDL version 420,2013-01-08 23:14:00,
2013-01-08 18:29:00,26.5,17.5,30.21,North,0,0.0,0.9,65,0.00,,,0.00,WSDL version 420,2013-01-08 23:29:00,
2013-01-08 18:44:00,26.9,18.7,30.18,North,-999,-999.0,-999.0,68,0.00,,,0.00,WSDL version 420,2013-01-08 23:44:00,
2013-01-08 18:59:00,27.3,19.9,30.21,North,-999,-999.0,-999.0,70,0.00,,,0.00,WSDL version 420,2013-01-08 23:59:00,
2013-01-08 19:14:00,25.6,18.1,30.21,North,-999,-999.0,-999.0,70,0.00,,,0.00,WSDL version 420,2013-01-09 00:14:00,
2013-01-08 19:29:00,26.4,19.3,30.21,North,-999,-999.0,-999.0,72,0.00,,,0.00,WSDL version 420,2013-01-09 00:29:00,
2013-01-08 19:44:00,27.4,20.9,30.21,North,-999,-999.0,-999.0,73,0.00,,,0.00,WSDL version 420,2013-01-09 00:44:00,
2013-01-08 19:59:00,26.1,19.2,30.24,North,-999,-999.0,-999.0,72,0.00,,,0.00,WSDL version 420,2013-01-09 00:59:00,
2013-01-08 20:13:00,25.6,19.0,30.24,North,-999,-999.0,-999.0,73,0.00,,,0.00,WSDL version 420,2013-01-09 01:13:00,
2013-01-08 20:28:00,26.1,20.1,30.24,North,-999,-999.0,-999.0,75,0.00,,,0.00,WSDL version 420,2013-01-09 01:28:00,
2013-01-08 20:43:00,26.1,20.3,30.24,North,-999,-999.0,-999.0,76,0.00,,,0.00,WSDL version 420,2013-01-09 01:43:00,
2013-01-08 20:58:00,26.2,20.3,30.24,North,-999,-999.0,-999.0,75,0.00,,,0.00,WSDL version 420,2013-01-09 01:58:00,
2013-01-08 21:13:00,25.0,18.9,30.27,North,-999,-999.0,-999.0,75,0.00,,,0.00,WSDL version 420,2013-01-09 02:13:00,
2013-01-08 21:29:00,24.4,18.7,30.24,North,-999,-999.0,-999.0,76,0.00,,,0.00,WSDL version 420,2013-01-09 02:29:00,
2013-01-08 21:44:00,24.3,19.4,30.24,North,-999,-999.0,-999.0,79,0.00,,,0.00,WSDL version 420,2013-01-09 02:44:00,
2013-01-08 21:59:00,24.9,20.1,30.27,North,-999,-999.0,-999.0,80,0.00,,,0.00,WSDL version 420,2013-01-09 02:59:00,
2013-01-08 22:14:00,24.9,20.1,30.27,North,-999,-999.0,-999.0,79,0.00,,,0.00,WSDL version 420,2013-01-09 03:14:00,
2013-01-08 22:29:00,24.5,19.6,30.27,North,-999,-999.0,-999.0,79,0.00,,,0.00,WSDL version 420,2013-01-09 03:29:00,
2013-01-08 22:44:00,25.1,20.4,30.27,North,-999,-999.0,-999.0,80,0.00,,,0.00,WSDL version 420,2013-01-09 03:44:00,
2013-01-08 22:59:00,25.2,20.5,30.27,North,-999,-999.0,-999.0,80,0.00,,,0.00,WSDL version 420,2013-01-09 03:59:00,
2013-01-08 23:14:00,25.4,20.7,30.27,North,-999,-999.0,-999.0,80,0.00,,,0.00,WSDL version 420,2013-01-09 04:14:00,
2013-01-08 23:29:00,25.4,20.8,30.27,North,-999,-999.0,-999.0,80,0.00,,,0.00,WSDL version 420,2013-01-09 04:29:00,
2013-01-08 23:44:00,25.6,20.9,30.27,North,-999,-999.0,-999.0,80,0.00,,,0.00,WSDL version 420,2013-01-09 04:44:00,
2013-01-08 23:59:00,25.5,20.8,30.30,North,-999,-999.0,-999.0,80,0.00,,,0.00,WSDL version 420,2013-01-09 04:59:00,